STARLINK-31422, 59354

Orbit data source: Space-Track

STARLINK-31422, 59354 is a payload satellite owned by SpaceX/Seattle (US) in LEO that was launched on Sun, 31 Mar 2024 UTC via an FALCON 9 launch vehicle from the Air Force Eastern Test Range (AFETR). Payload-class satellites include a variety of spacecraft equipped with specific instruments for various scientific and technological missions. These include communications satellites like Starlink; space stations such as the ISS; scientific satellites like the Hubble; Earth observation satellites from companies like Planet Labs, Umbra, and HawkEye 360; GPS; miniature CubeSats for education and research; and military/defense satellites.

Loading next visibility...
Identifier
59354, 2024-060G
Orbit
LEO
Country
Flag of USUS
Related business
Manufacturer
SpaceX/Seattle
Mission
Operational Commercial Communications
Bus & Motor
STARLINK V2M, Unknown motor
Mass
730 kg wet, ~700 kg dry
Launch date (UTC)
2024-03-31 (2 years ago)
Launch vehicle
FALCON 9
Launch site
Air Force Eastern Test Range (AFETR)
Object type
Payload
Rocket body
Debris
Shape & HBR
Box + 2 Pan, 17.7 m
Radar Cross Section
33.884 m², Large (>1 m²)

Expand to show TLE details & history
Last TLE update: 2 days ago

TLE from 2 days ago
0 STARLINK-31422
1 59354U 24060G   26171.05449957  .00001170  00000-0  52037-4 0  9998
2 59354  43.0027  42.1459 0001148 270.6695  89.4025 15.27580256125713
Epoch: 2026-06-20T01:18Z
TLE epoch observation values (Epoch: 2026-06-20T01:18:28.762Z)
Latitude
-0.00004°
Longitude
114.25138°
Altitude
482.816 km
Speed
7.626 km/s
True Right ascension
02h 48m 35s
True Declination
0° 00' 00"
Sunlit
Object was in daylight at epoch
Visualization orbit readout
Latitude
Unknown
Longitude
Unknown
Altitude
Unknown
Speed
Unknown
Apparent Right ascension
Unknown
Apparent Declination
Unknown
Sunlit
N/A
Visualization observer readout
Local Sidereal Time
21:52:40
Azimuth
Unknown
Elevation
Unknown
Doppler factor
Unknown
Orbital elements
Apogee altitude
485.781 km
Perigee altitude
484.205 km
Semi-major axis
6,863.13 km
Eccentricity
0.00011
Inclination
43.0027°
RAAN
42.1459°
Arg. of periapsis
270.6695°
True anomaly
89.41565°
Mean anomaly
89.4025°
Eccentric anomaly
89.40908°
Mean motion
3.81733 °/min
Orbital period
94.31 mins
BSTAR
0.000052037
Loading maneuver chart data...
Computing Atmospheric mass density...
Loading historical data...
Loading historical data...
Loading historical data...
Loading historical data...
Loading historical data...
Loading historical data...
Loading historical data...

Documentation

Showing up to 5 results
|